This is the latest recevied weather packets stored in our database for station/object WD7CGF. If no packets are shown the sender has not sent any weather packets the latest 10 day(s).
| Time | Temp. | Humidity | Pressure | Rain* | Wind** | Luminosity | Snow |
|---|---|---|---|---|---|---|---|
| 1777801711 | 8.33° C | 80% | 1014.4 hPa | 0 mm | - | - | - |
| 1777801123 | 8.89° C | 79% | 1014.5 hPa | 0 mm | - | - | - |
| 1777800516 | 8.89° C | 78% | 1014.3 hPa | 0 mm | - | - | - |
| 1777799925 | 9.44° C | 78% | 1014.3 hPa | 0 mm | - | - | - |
| 1777799318 | 9.44° C | 77% | 1014.2 hPa | 0 mm | - | - | - |
| 1777798731 | 9.44° C | 76% | 1014.2 hPa | 0 mm | - | - | - |
| 1777798120 | 10° C | 76% | 1014.2 hPa | 0 mm | - | - | - |
| 1777797528 | 10° C | 76% | 1014.1 hPa | 0 mm | - | - | - |
| 1777796921 | 10.56° C | 76% | 1015 hPa | 0 mm | - | - | - |
| 1777796316 | 10.56° C | 76% | 1015 hPa | 0 mm | - | - | - |
| 1777795725 | 10.56° C | 76% | 1014.1 hPa | 0 mm | - | - | - |
| 1777795100 | 10.56° C | 77% | 1014 hPa | 0 mm | - | - | - |
| 1777794490 | 10° C | 76% | 1014 hPa | 0 mm | - | - | - |
| 1777793896 | 10.56° C | 76% | 1013.9 hPa | 0 mm | - | - | - |
| 1777793287 | 10.56° C | 75% | 1013.8 hPa | 0 mm | - | - | - |
| 1777792696 | 10.56° C | 74% | 1013.8 hPa | 0 mm | - | - | - |
| 1777792088 | 11.11° C | 74% | 1013.7 hPa | 0 mm | - | - | - |
| 1777791495 | 11.11° C | 73% | 1013.6 hPa | 0 mm | - | - | - |
| 1777790884 | 11.67° C | 71% | 1013.6 hPa | 0 mm | - | - | - |
| 1777790296 | 11.67° C | 70% | 1013.5 hPa | 0 mm | - | - | - |
| 1777789693 | 12.22° C | 70% | 1014.4 hPa | 0 mm | - | - | - |
| 1777789084 | 12.78° C | 69% | 1014.4 hPa | 0 mm | - | - | - |
| 1777788495 | 12.78° C | 68% | 1013.5 hPa | 0 mm | - | - | - |
| 1777787885 | 13.33° C | 67% | 1014.2 hPa | 0 mm | - | - | - |
| 1777787295 | 13.33° C | 67% | 1014.2 hPa | 0 mm | - | - | - |
* Rain latest hour (hover to see other rain measurements)
** Current wind speed in m/s (hover to see current wind gust speed)